Location: Newark
(33.6333°S, 78.8500°W)
Time: 01:43:43
(UTC+00:00)

deb Explorer IX - Visible Passes

Search period start: 20 September 2019 00:00
Search period end: 30 September 2019 00:00
Orbit: 544 x 1107 km, 38.8° (Epoch: 18 September)

Date Brightness Start Highest point End Pass type
(mag) Time Alt. Az. Time Alt. Az. Time Alt. Az.
20 Sep ? 01:45:41 10° W 01:50:54 21° NW 01:52:15 20° NNW visible
20 Sep ? 23:34:50 10° WSW 23:41:56 64° NNW 23:49:12 10° NE visible
21 Sep ? 01:23:40 10° W 01:28:49 21° NW 01:32:00 16° N visible
22 Sep ? 01:01:41 10° W 01:06:44 20° NW 01:11:47 10° N visible
23 Sep ? 00:39:43 10° W 00:44:40 20° NW 00:49:38 10° N visible
24 Sep ? 00:17:48 10° W 00:22:36 19° NW 00:27:29 10° N visible
24 Sep ? 23:55:54 10° W 00:00:33 19° NW 00:05:18 10° N visible
25 Sep ? 23:34:03 10° W 23:38:30 18° NW 23:43:06 10° N visible
